COSMOS 1844

Last updated on Wed Jul 02 2025 00:02:14 GMT+0000 (Coordinated Universal Time)

1 17973U 87041A 25182.49818511 -.00000121 00000+0 -37535-4 0 9994 2 17973 70.8978 203.9720 0029501 35.5689 324.7391 14.14483225968066
UTC large
Height (km)
Speed (km/s)
/
Latitude / Longitude
Inclination (degrees)
Orbital Period (minutes)
Azimuth
Elevation
Range (km)
Doppler Factor

Next 0 passes for location: London (51.5072 / 0.1276)

Sorry there are no passes over London.